Time,TemperatureF,DewpointF,PressureIn,WindDirection,WindDirectionDegrees,WindSpeedMPH,WindSpeedGustMPH,Humidity,HourlyPrecipIn,Conditions,Clouds,dailyrainin,SolarRadiationWatts/m^2,SoftwareType,DateUTC
2013-01-06 00:03:00,65.1,61.0,30.19,North,355,0.0,-999.0,87,-99.99,,,0.00,0,weatherlink.com 1.10,2013-01-06 05:03:00,
2013-01-06 00:18:00,65.2,61.0,30.18,NNE,31,0.0,-999.0,87,-99.99,,,0.00,0,weatherlink.com 1.10,2013-01-06 05:18:00,
2013-01-06 00:33:00,65.3,61.0,30.17,NE,36,0.0,-999.0,87,-99.99,,,0.00,0,weatherlink.com 1.10,2013-01-06 05:33:00,
2013-01-06 00:48:00,65.1,61.0,30.17,NE,36,0.0,-999.0,87,-99.99,,,0.00,0,weatherlink.com 1.10,2013-01-06 05:48:00,
2013-01-06 01:18:00,64.6,61.0,30.16,NE,36,0.0,-999.0,88,-99.99,,,0.00,0,weatherlink.com 1.10,2013-01-06 06:18:00,
2013-01-06 01:33:00,64.3,61.0,30.16,NE,47,0.0,-999.0,89,-99.99,,,0.00,0,weatherlink.com 1.10,2013-01-06 06:33:00,
2013-01-06 01:48:00,64.0,61.0,30.16,NE,47,0.0,-999.0,90,-99.99,,,0.00,0,weatherlink.com 1.10,2013-01-06 06:48:00,
2013-01-06 02:03:00,63.8,61.0,30.16,NE,47,0.0,-999.0,90,-99.99,,,0.00,0,weatherlink.com 1.10,2013-01-06 07:03:00,
2013-01-06 02:18:00,63.6,61.0,30.16,NE,47,0.0,-999.0,91,-99.99,,,0.00,0,weatherlink.com 1.10,2013-01-06 07:18:00,
2013-01-06 02:34:00,63.5,61.0,30.16,NE,47,0.0,-999.0,91,-99.99,,,0.00,0,weatherlink.com 1.10,2013-01-06 07:34:00,
2013-01-06 02:48:00,63.3,61.0,30.15,NE,47,0.0,-999.0,92,-99.99,,,0.00,0,weatherlink.com 1.10,2013-01-06 07:48:00,
2013-01-06 03:04:00,63.4,61.0,30.14,ENE,61,0.0,-999.0,92,-99.99,,,0.00,0,weatherlink.com 1.10,2013-01-06 08:04:00,
2013-01-06 03:19:00,63.2,61.0,30.14,ENE,61,0.0,-999.0,93,-99.99,,,0.00,0,weatherlink.com 1.10,2013-01-06 08:19:00,
2013-01-06 03:34:00,63.1,61.0,30.14,ENE,61,0.0,-999.0,93,-99.99,,,0.00,0,weatherlink.com 1.10,2013-01-06 08:34:00,
2013-01-06 03:49:00,62.9,61.0,30.14,ENE,61,0.0,-999.0,93,-99.99,,,0.00,0,weatherlink.com 1.10,2013-01-06 08:49:00,
2013-01-06 04:04:00,62.7,61.0,30.13,ENE,61,0.0,-999.0,93,-99.99,,,0.00,0,weatherlink.com 1.10,2013-01-06 09:04:00,
2013-01-06 04:19:00,62.6,61.0,30.13,ENE,61,1.0,-999.0,94,-99.99,,,0.00,0,weatherlink.com 1.10,2013-01-06 09:19:00,
2013-01-06 04:34:00,62.5,61.0,30.12,ENE,61,0.0,-999.0,94,-99.99,,,0.00,0,weatherlink.com 1.10,2013-01-06 09:34:00,
2013-01-06 04:49:00,62.1,60.0,30.12,ENE,61,0.0,-999.0,94,-99.99,,,0.00,0,weatherlink.com 1.10,2013-01-06 09:49:00,
2013-01-06 05:04:00,62.0,60.0,30.12,ENE,61,0.0,-999.0,94,-99.99,,,0.00,0,weatherlink.com 1.10,2013-01-06 10:04:00,
2013-01-06 05:19:00,61.8,60.0,30.12,ENE,61,1.0,-999.0,95,-99.99,,,0.00,0,weatherlink.com 1.10,2013-01-06 10:19:00,
2013-01-06 05:34:00,61.5,60.0,30.12,ENE,61,1.0,-999.0,95,-99.99,,,0.00,0,weatherlink.com 1.10,2013-01-06 10:34:00,
2013-01-06 05:49:00,61.3,60.0,30.12,ENE,61,0.0,-999.0,95,-99.99,,,0.00,0,weatherlink.com 1.10,2013-01-06 10:49:00,
2013-01-06 06:04:00,61.2,60.0,30.12,East,82,3.0,-999.0,95,-99.99,,,0.00,0,weatherlink.com 1.10,2013-01-06 11:04:00,
2013-01-06 06:19:00,62.0,61.0,30.12,ESE,103,1.0,-999.0,96,-99.99,,,0.00,0,weatherlink.com 1.10,2013-01-06 11:19:00,
2013-01-06 06:34:00,62.2,61.0,30.12,East,97,2.0,-999.0,96,-99.99,,,0.00,0,weatherlink.com 1.10,2013-01-06 11:34:00,
2013-01-06 06:49:00,62.1,61.0,30.13,East,80,3.0,-999.0,96,-99.99,,,0.00,0,weatherlink.com 1.10,2013-01-06 11:49:00,
2013-01-06 07:04:00,62.0,61.0,30.13,East,101,5.0,-999.0,96,-99.99,,,0.00,0,weatherlink.com 1.10,2013-01-06 12:04:00,
2013-01-06 07:19:00,61.8,61.0,30.13,East,88,0.0,-999.0,97,-99.99,,,0.00,0,weatherlink.com 1.10,2013-01-06 12:19:00,
2013-01-06 07:34:00,62.0,61.0,30.13,East,94,5.0,-999.0,97,-99.99,,,0.00,7,weatherlink.com 1.10,2013-01-06 12:34:00,
2013-01-06 07:49:00,62.3,62.0,30.13,ESE,114,4.0,-999.0,97,-99.99,,,0.00,23,weatherlink.com 1.10,2013-01-06 12:49:00,
2013-01-06 08:04:00,62.5,62.0,30.14,ESE,117,0.0,-999.0,97,-99.99,,,0.00,33,weatherlink.com 1.10,2013-01-06 13:04:00,
2013-01-06 08:19:00,62.5,62.0,30.14,East,93,4.0,-999.0,97,-99.99,,,0.00,44,weatherlink.com 1.10,2013-01-06 13:19:00,
2013-01-06 08:34:00,62.8,62.0,30.14,ESE,111,2.0,-999.0,97,-99.99,,,0.00,62,weatherlink.com 1.10,2013-01-06 13:34:00,
2013-01-06 08:49:00,63.0,62.0,30.14,ESE,103,4.0,-999.0,97,-99.99,,,0.00,74,weatherlink.com 1.10,2013-01-06 13:49:00,
2013-01-06 09:04:00,63.3,63.0,30.14,ESE,103,2.0,-999.0,97,-99.99,,,0.00,125,weatherlink.com 1.10,2013-01-06 14:04:00,
2013-01-06 09:19:00,63.5,63.0,30.15,East,84,2.0,-999.0,97,-99.99,,,0.00,128,weatherlink.com 1.10,2013-01-06 14:19:00,
2013-01-06 09:34:00,63.8,63.0,30.15,ESE,113,4.0,-999.0,97,-99.99,,,0.00,158,weatherlink.com 1.10,2013-01-06 14:34:00,
2013-01-06 09:49:00,64.2,63.0,30.15,East,84,1.0,-999.0,97,-99.99,,,0.00,167,weatherlink.com 1.10,2013-01-06 14:49:00,
2013-01-06 10:04:00,64.5,64.0,30.16,East,84,2.0,-999.0,97,-99.99,,,0.00,169,weatherlink.com 1.10,2013-01-06 15:04:00,
2013-01-06 10:19:00,64.7,64.0,30.16,East,84,0.0,-999.0,97,-99.99,,,0.00,190,weatherlink.com 1.10,2013-01-06 15:19:00,
2013-01-06 10:34:00,65.1,64.0,30.16,SE,128,0.0,-999.0,97,-99.99,,,0.00,260,weatherlink.com 1.10,2013-01-06 15:34:00,
2013-01-06 10:49:00,65.3,65.0,30.16,NE,54,3.0,-999.0,98,-99.99,,,0.00,323,weatherlink.com 1.10,2013-01-06 15:49:00,
2013-01-06 11:04:00,65.9,65.0,30.15,East,97,2.0,-999.0,98,-99.99,,,0.00,559,weatherlink.com 1.10,2013-01-06 16:04:00,
2013-01-06 11:19:00,66.5,66.0,30.14,East,84,2.0,-999.0,97,-99.99,,,0.00,276,weatherlink.com 1.10,2013-01-06 16:19:00,
2013-01-06 11:34:00,67.0,66.0,30.13,East,84,1.0,-999.0,97,-99.99,,,0.00,279,weatherlink.com 1.10,2013-01-06 16:34:00,
2013-01-06 11:49:00,67.9,67.0,30.13,ESE,102,2.0,-999.0,96,-99.99,,,0.00,729,weatherlink.com 1.10,2013-01-06 16:49:00,
2013-01-06 12:05:00,69.3,68.0,30.12,ENE,61,2.0,-999.0,94,-99.99,,,0.00,677,weatherlink.com 1.10,2013-01-06 17:05:00,
2013-01-06 12:20:00,71.0,68.0,30.11,ENE,57,3.0,-999.0,91,-99.99,,,0.00,909,weatherlink.com 1.10,2013-01-06 17:20:00,
2013-01-06 12:35:00,73.4,69.0,30.10,ESE,105,0.0,-999.0,86,-99.99,,,0.00,550,weatherlink.com 1.10,2013-01-06 17:35:00,
2013-01-06 12:50:00,74.8,69.0,30.09,ENE,69,0.0,-999.0,83,-99.99,,,0.00,330,weatherlink.com 1.10,2013-01-06 17:50:00,
2013-01-06 13:05:00,75.4,69.0,30.09,SE,126,2.0,-999.0,81,-99.99,,,0.00,526,weatherlink.com 1.10,2013-01-06 18:05:00,
2013-01-06 13:20:00,76.3,70.0,30.08,SE,126,0.0,-999.0,80,-99.99,,,0.00,686,weatherlink.com 1.10,2013-01-06 18:20:00,
2013-01-06 13:35:00,77.2,70.0,30.07,East,100,0.0,-999.0,77,-99.99,,,0.00,744,weatherlink.com 1.10,2013-01-06 18:35:00,
2013-01-06 13:50:00,78.2,70.0,30.07,SE,130,4.0,-999.0,75,-99.99,,,0.00,355,weatherlink.com 1.10,2013-01-06 18:50:00,
2013-01-06 14:05:00,78.3,70.0,30.06,SSW,194,1.0,-999.0,75,-99.99,,,0.00,316,weatherlink.com 1.10,2013-01-06 19:05:00,
2013-01-06 14:20:00,78.7,70.0,30.06,SSE,147,0.0,-999.0,75,-99.99,,,0.00,513,weatherlink.com 1.10,2013-01-06 19:20:00,
2013-01-06 14:35:00,79.1,71.0,30.06,WSW,242,0.0,-999.0,75,-99.99,,,0.00,568,weatherlink.com 1.10,2013-01-06 19:35:00,
2013-01-06 15:20:00,79.1,71.0,30.06,South,173,1.0,-999.0,75,-99.99,,,0.00,267,weatherlink.com 1.10,2013-01-06 20:20:00,
2013-01-06 15:35:00,78.5,70.0,30.06,West,265,3.0,-999.0,76,-99.99,,,0.00,236,weatherlink.com 1.10,2013-01-06 20:35:00,
2013-01-06 15:50:00,77.1,70.0,30.06,South,182,0.0,-999.0,79,-99.99,,,0.00,137,weatherlink.com 1.10,2013-01-06 20:50:00,
2013-01-06 16:05:00,76.4,70.0,30.07,WSW,240,1.0,-999.0,80,-99.99,,,0.00,130,weatherlink.com 1.10,2013-01-06 21:05:00,
2013-01-06 16:20:00,75.9,70.0,30.07,SE,130,0.0,-999.0,81,-99.99,,,0.00,111,weatherlink.com 1.10,2013-01-06 21:20:00,
2013-01-06 16:35:00,75.4,69.0,30.07,SE,130,0.0,-999.0,81,-99.99,,,0.00,74,weatherlink.com 1.10,2013-01-06 21:35:00,
2013-01-06 16:50:00,74.4,69.0,30.07,NW,317,0.0,-999.0,82,-99.99,,,0.00,60,weatherlink.com 1.10,2013-01-06 21:50:00,
2013-01-06 17:05:00,73.7,68.0,30.08,NNW,330,0.0,-999.0,83,-99.99,,,0.00,39,weatherlink.com 1.10,2013-01-06 22:05:00,
2013-01-06 17:20:00,71.1,66.0,30.08,NNW,328,1.0,-999.0,83,-99.99,,,0.00,14,weatherlink.com 1.10,2013-01-06 22:20:00,
2013-01-06 17:35:00,68.8,65.0,30.08,NNW,329,3.0,-999.0,86,-99.99,,,0.00,9,weatherlink.com 1.10,2013-01-06 22:35:00,
2013-01-06 17:50:00,67.5,64.0,30.09,North,355,0.0,-999.0,88,-99.99,,,0.00,0,weatherlink.com 1.10,2013-01-06 22:50:00,
2013-01-06 18:05:00,67.1,64.0,30.09,NNW,331,1.0,-999.0,89,-99.99,,,0.00,0,weatherlink.com 1.10,2013-01-06 23:05:00,
2013-01-06 18:20:00,66.9,64.0,30.09,North,355,3.0,-999.0,91,-99.99,,,0.00,0,weatherlink.com 1.10,2013-01-06 23:20:00,
2013-01-06 18:35:00,66.6,64.0,30.09,NNW,339,2.0,-999.0,92,-99.99,,,0.00,0,weatherlink.com 1.10,2013-01-06 23:35:00,
2013-01-06 18:50:00,66.6,65.0,30.09,North,355,0.0,-999.0,93,-99.99,,,0.00,0,weatherlink.com 1.10,2013-01-06 23:50:00,
2013-01-06 19:05:00,66.7,65.0,30.09,NNW,328,2.0,-999.0,93,-99.99,,,0.00,0,weatherlink.com 1.10,2013-01-07 00:05:00,
2013-01-06 19:20:00,66.8,65.0,30.09,NNW,329,0.0,-999.0,93,-99.99,,,0.00,0,weatherlink.com 1.10,2013-01-07 00:20:00,
2013-01-06 19:35:00,66.8,65.0,30.09,NNW,329,0.0,-999.0,93,-99.99,,,0.00,0,weatherlink.com 1.10,2013-01-07 00:35:00,
2013-01-06 19:50:00,66.8,65.0,30.09,ENE,60,0.0,-999.0,93,-99.99,,,0.00,0,weatherlink.com 1.10,2013-01-07 00:50:00,
2013-01-06 20:05:00,66.9,65.0,30.09,ENE,60,0.0,-999.0,93,-99.99,,,0.00,0,weatherlink.com 1.10,2013-01-07 01:05:00,
2013-01-06 20:20:00,66.9,65.0,30.09,ENE,74,0.0,-999.0,93,-99.99,,,0.00,0,weatherlink.com 1.10,2013-01-07 01:20:00,
2013-01-06 20:35:00,66.9,65.0,30.10,ENE,74,0.0,-999.0,93,-99.99,,,0.00,0,weatherlink.com 1.10,2013-01-07 01:35:00,
2013-01-06 20:50:00,66.8,65.0,30.10,ENE,74,0.0,-999.0,93,-99.99,,,0.01,0,weatherlink.com 1.10,2013-01-07 01:50:00,
2013-01-06 21:05:00,66.5,65.0,30.11,ENE,74,1.0,-999.0,94,-99.99,,,0.02,0,weatherlink.com 1.10,2013-01-07 02:05:00,
2013-01-06 21:20:00,66.3,65.0,30.10,ENE,74,0.0,-999.0,94,-99.99,,,0.04,0,weatherlink.com 1.10,2013-01-07 02:20:00,
2013-01-06 21:35:00,66.4,65.0,30.10,ENE,74,0.0,-999.0,95,-99.99,,,0.06,0,weatherlink.com 1.10,2013-01-07 02:35:00,
2013-01-06 21:50:00,66.3,65.0,30.11,NNW,340,0.0,-999.0,95,-99.99,,,0.06,0,weatherlink.com 1.10,2013-01-07 02:50:00,
2013-01-06 22:05:00,66.3,65.0,30.11,NW,311,4.0,-999.0,96,-99.99,,,0.06,0,weatherlink.com 1.10,2013-01-07 03:05:00,
2013-01-06 22:20:00,66.3,65.0,30.11,NW,318,3.0,-999.0,96,-99.99,,,0.06,0,weatherlink.com 1.10,2013-01-07 03:20:00,
2013-01-06 22:35:00,65.6,64.0,30.11,NNW,334,0.0,-999.0,95,-99.99,,,0.06,0,weatherlink.com 1.10,2013-01-07 03:35:00,
2013-01-06 22:50:00,64.9,64.0,30.11,North,5,0.0,-999.0,96,-99.99,,,0.06,0,weatherlink.com 1.10,2013-01-07 03:50:00,
2013-01-06 23:05:00,64.7,64.0,30.11,NNW,348,6.0,-999.0,96,-99.99,,,0.06,0,weatherlink.com 1.10,2013-01-07 04:05:00,
2013-01-06 23:20:00,64.6,64.0,30.11,NNW,334,2.0,-999.0,96,-99.99,,,0.06,0,weatherlink.com 1.10,2013-01-07 04:20:00,
2013-01-06 23:35:00,64.6,64.0,30.12,NW,309,0.0,-999.0,96,-99.99,,,0.06,0,weatherlink.com 1.10,2013-01-07 04:35:00,
2013-01-06 23:50:00,64.7,64.0,30.11,NW,321,2.0,-999.0,96,-99.99,,,0.06,0,weatherlink.com 1.10,2013-01-07 04:50:00,